Weather History for Knoxville, IA

Change the Weather History Date:

Thursday, January 23, 2014

  Actual Average Record
Temperature  
Mean Temperature 0 °F -  
Max Temperature 6 °F 35 °F 58 °F (1981)
Min Temperature -5 °F 15 °F -22 °F (1963)
Degree Days  
Heating Degree Days 64    
Moisture  
Dew Point -12 °F    
Average Humidity 58    
Maximum Humidity 66    
Minimum Humidity 47    
Precipitation  
Precipitation 0.00 in - - ()
Sea Level Pressure  
Sea Level Pressure 30.64 in    
Wind  
Wind Speed 14 mph (WNW)    
Max Wind Speed 18 mph    
Max Gust Speed 29 mph    
Visibility 10 miles    
Events      
Averages and records for this station are not official NWS values.
T = Trace of Precipitation, MM = Missing Value Source: NWS Daily Summary

Daily Weather History Graph

Daily Weather History Graph

Search for Another Location

Airport:

Trip Planner

Search our weather history database for the weather conditions in past years. The results will help you decide how hot, cold, wet, or windy it might be!

Date:

Astronomy

Jan. 23, 2014 Rise Set
Actual Time 7:31 AM CST 5:17 PM CST
Civil Twilight 7:01 AM CST 5:47 PM CST
Nautical Twilight 6:27 AM CST 6:21 PM CST
Astronomical Twilight 5:55 AM CST 6:53 PM CST
Moon No Moon Rise 11:01 AM CST (1/23)
Length of Visible Light 10h 46m
Length of Day
9h 46m
Waning Gibbous, 55% of the Moon is Illuminated
Jan 23
Waning Gibbous
Jan 23
Last Quarter
Jan 30
New
Feb 6
First Quarter
Feb 14
Full

Hourly Weather History & Observations

Time (CST) Temp. Windchill Dew Point Humidity Pressure Visibility Wind Dir Wind Speed Gust Speed Precip Events Conditions
12:15 AM -2.2 °F -22.2 °F -13.0 °F 60% 30.48 in 10.0 mi NW 15.0 mph 21.9 mph N/A   Mostly Cloudy
12:35 AM -4.0 °F -25.8 °F -13.0 °F 65% 30.49 in 10.0 mi NW 17.3 mph - N/A   Overcast
12:55 AM -4.0 °F -26.4 °F -14.8 °F 60% 30.50 in 10.0 mi NNW 18.4 mph - N/A   Overcast
1:15 AM -4.0 °F -25.2 °F -14.8 °F 60% 30.50 in 10.0 mi NW 16.1 mph 24.2 mph N/A   Overcast
1:35 AM -4.0 °F -25.2 °F -14.8 °F 60% 30.51 in 10.0 mi NW 16.1 mph 23.0 mph N/A   Overcast
1:55 AM -4.0 °F -26.4 °F -14.8 °F 60% 30.52 in 10.0 mi NNW 18.4 mph 28.8 mph N/A   Overcast
2:15 AM -4.0 °F -24.5 °F -14.8 °F 60% 30.53 in 10.0 mi NW 15.0 mph 21.9 mph N/A   Overcast
2:35 AM -4.0 °F -25.8 °F -14.8 °F 60% 30.54 in 10.0 mi NNW 17.3 mph - N/A   Overcast
2:55 AM -4.0 °F -23.7 °F -14.8 °F 60% 30.54 in 10.0 mi NNW 13.8 mph 19.6 mph N/A   Overcast
3:15 AM -4.0 °F -24.5 °F -14.8 °F 60% 30.55 in 10.0 mi NNW 15.0 mph - N/A   Overcast
3:35 AM -4.0 °F -25.8 °F -14.8 °F 60% 30.56 in 10.0 mi NNW 17.3 mph - N/A   Overcast
3:55 AM -4.0 °F -25.2 °F -14.8 °F 60% 30.56 in 10.0 mi NW 16.1 mph 24.2 mph N/A   Overcast
4:15 AM -5.8 °F -28.8 °F -14.8 °F 65% 30.57 in 10.0 mi NW 18.4 mph - N/A   Overcast
4:35 AM -5.8 °F -28.8 °F -16.6 °F 60% 30.58 in 10.0 mi NNW 18.4 mph - N/A   Mostly Cloudy
4:55 AM -5.8 °F -27.5 °F -16.6 °F 60% 30.59 in 10.0 mi NNW 16.1 mph 23.0 mph N/A   Mostly Cloudy
5:15 AM -5.8 °F -26.0 °F -16.6 °F 60% 30.60 in 10.0 mi NW 13.8 mph - N/A   Mostly Cloudy
5:35 AM -5.8 °F -26.0 °F -14.8 °F 65% 30.61 in 10.0 mi NW 13.8 mph - N/A   Mostly Cloudy
5:55 AM -5.8 °F -28.2 °F -16.6 °F 60% 30.63 in 10.0 mi NW 17.3 mph 24.2 mph N/A   Mostly Cloudy
6:15 AM -5.8 °F -26.0 °F -16.6 °F 60% 30.64 in 10.0 mi NW 13.8 mph 20.7 mph N/A   Mostly Cloudy
6:35 AM -5.8 °F -27.5 °F -16.6 °F 60% 30.65 in 10.0 mi NW 16.1 mph 23.0 mph N/A   Mostly Cloudy
6:55 AM -5.8 °F -27.5 °F -16.6 °F 60% 30.66 in 10.0 mi NW 16.1 mph - N/A   Mostly Cloudy
7:15 AM -5.8 °F -25.2 °F -16.6 °F 60% 30.67 in 10.0 mi NW 12.7 mph - N/A   Mostly Cloudy
7:35 AM -5.8 °F -26.8 °F -16.6 °F 60% 30.67 in 10.0 mi NW 15.0 mph - N/A   Partly Cloudy
7:55 AM -5.8 °F -26.0 °F -16.6 °F 60% 30.68 in 10.0 mi NW 13.8 mph 20.7 mph N/A   Partly Cloudy
8:15 AM -5.8 °F -25.2 °F -16.6 °F 60% 30.69 in 10.0 mi NW 12.7 mph 18.4 mph N/A   Scattered Clouds
8:35 AM -5.8 °F -28.2 °F -16.6 °F 60% 30.70 in 10.0 mi NW 17.3 mph - N/A   Partly Cloudy
8:55 AM -4.0 °F -24.5 °F -16.6 °F 55% 30.70 in 10.0 mi NW 15.0 mph - N/A   Partly Cloudy
9:15 AM -4.0 °F -25.8 °F -14.8 °F 60% 30.71 in 10.0 mi NW 17.3 mph - N/A   Partly Cloudy
9:35 AM -4.0 °F -24.5 °F -14.8 °F 60% 30.72 in 10.0 mi NW 15.0 mph 21.9 mph N/A   Clear
9:55 AM -2.2 °F -23.5 °F -14.8 °F 55% 30.72 in 10.0 mi NW 17.3 mph - N/A   Clear
10:15 AM -2.2 °F -22.2 °F -13.0 °F 60% 30.73 in 10.0 mi NW 15.0 mph - N/A   Clear
10:35 AM -0.4 °F -18.4 °F -13.0 °F 55% 30.74 in 10.0 mi NW 12.7 mph 18.4 mph N/A   Clear
10:55 AM -0.4 °F -20.5 °F -13.0 °F 55% 30.75 in 10.0 mi NNW 16.1 mph - N/A   Clear
11:15 AM -0.4 °F -18.4 °F -13.0 °F 55% 30.75 in 10.0 mi WNW 12.7 mph - N/A   Clear
11:35 AM 1.4 °F -16.1 °F -11.2 °F 56% 30.75 in 10.0 mi NW 12.7 mph - N/A   Clear
11:55 AM 1.4 °F -17.6 °F -11.2 °F 56% 30.74 in 10.0 mi WNW 15.0 mph - N/A   Clear
12:15 PM 3.2 °F -15.3 °F -11.2 °F 51% 30.74 in 10.0 mi WNW 15.0 mph - N/A   Clear
12:35 PM 3.2 °F -13.1 °F -11.2 °F 51% 30.73 in 10.0 mi NW 11.5 mph 17.3 mph N/A   Clear
12:55 PM 3.2 °F -15.3 °F -11.2 °F 51% 30.72 in 10.0 mi WNW 15.0 mph 21.9 mph N/A   Clear
1:15 PM 5.0 °F -13.0 °F -11.2 °F 47% 30.72 in 10.0 mi NW 15.0 mph - N/A   Clear
1:35 PM 5.0 °F -11.6 °F -9.4 °F 52% 30.71 in 10.0 mi NW 12.7 mph 19.6 mph N/A   Clear
1:55 PM 5.0 °F -12.3 °F -11.2 °F 47% 30.70 in 10.0 mi WNW 13.8 mph - N/A   Clear
2:15 PM 5.0 °F -10.8 °F -9.4 °F 52% 30.70 in 10.0 mi West 11.5 mph - N/A   Clear
2:35 PM 5.0 °F -9.1 °F -9.4 °F 52% 30.70 in 10.0 mi WNW 9.2 mph 17.3 mph N/A   Clear
2:55 PM 6.8 °F -8.6 °F -7.6 °F 52% 30.70 in 10.0 mi WNW 11.5 mph - N/A   Clear
3:15 PM 6.8 °F -10.0 °F -7.6 °F 52% 30.70 in 10.0 mi WNW 13.8 mph - N/A   Clear
3:35 PM 6.8 °F -9.3 °F -7.6 °F 52% 30.70 in 10.0 mi West 12.7 mph - N/A   Clear
3:55 PM 6.8 °F -9.3 °F -7.6 °F 52% 30.70 in 10.0 mi WNW 12.7 mph - N/A   Clear
4:15 PM 6.8 °F -10.0 °F -7.6 °F 52% 30.70 in 10.0 mi WNW 13.8 mph - N/A   Clear
4:35 PM 6.8 °F -8.6 °F -7.6 °F 52% 30.69 in 10.0 mi WNW 11.5 mph - N/A   Clear
4:55 PM 6.8 °F -7.8 °F -7.6 °F 52% 30.69 in 10.0 mi WNW 10.4 mph - N/A   Clear
5:15 PM 5.0 °F -9.1 °F -7.6 °F 56% 30.70 in 10.0 mi West 9.2 mph - N/A   Clear
5:35 PM 3.2 °F -10.3 °F -7.6 °F 61% 30.69 in 10.0 mi West 8.1 mph - N/A   Clear
5:55 PM 3.2 °F - -7.6 °F 61% 30.68 in 10.0 mi North - - N/A   Clear
6:15 PM 1.4 °F -12.5 °F -9.4 °F 61% 30.68 in 10.0 mi West 8.1 mph - N/A   Clear
6:35 PM 1.4 °F -12.5 °F -9.4 °F 61% 30.68 in 10.0 mi West 8.1 mph - N/A   Clear
6:55 PM 1.4 °F -12.5 °F -9.4 °F 61% 30.67 in 10.0 mi West 8.1 mph - N/A   Clear
7:15 PM 1.4 °F -11.3 °F -7.6 °F 66% 30.67 in 10.0 mi West 6.9 mph - N/A   Clear
7:35 PM 1.4 °F -9.9 °F -7.6 °F 66% 30.66 in 10.0 mi WSW 5.8 mph - N/A   Clear
7:55 PM 1.4 °F -9.9 °F -7.6 °F 66% 30.65 in 10.0 mi WSW 5.8 mph - N/A   Clear
8:35 PM 1.4 °F -11.3 °F -7.6 °F 66% 30.63 in 10.0 mi SW 6.9 mph - N/A   Clear
8:55 PM 1.4 °F -12.5 °F -7.6 °F 66% 30.61 in 10.0 mi SW 8.1 mph - N/A   Clear
9:15 PM 1.4 °F -12.5 °F -7.6 °F 66% 30.60 in 10.0 mi SW 8.1 mph - N/A   Clear
9:55 PM 1.4 °F -12.5 °F -9.4 °F 61% 30.58 in 10.0 mi SW 8.1 mph - N/A   Clear
10:15 PM 1.4 °F -13.5 °F -9.4 °F 61% 30.58 in 10.0 mi SW 9.2 mph - N/A   Clear
10:35 PM 1.4 °F -12.5 °F -9.4 °F 61% 30.56 in 10.0 mi SW 8.1 mph - N/A   Clear
10:55 PM 1.4 °F -11.3 °F -9.4 °F 61% 30.56 in 10.0 mi SW 6.9 mph - N/A   Clear
11:15 PM 1.4 °F -13.5 °F -9.4 °F 61% 30.54 in 10.0 mi SSW 9.2 mph - N/A   Clear
11:35 PM 1.4 °F -15.3 °F -9.4 °F 61% 30.53 in 10.0 mi SSW 11.5 mph - N/A   Clear
11:55 PM 3.2 °F -12.2 °F -9.4 °F 56% 30.51 in 10.0 mi SSW 10.4 mph - N/A   Clear